• In France
  • List of Countries
  • For 7 days
  • Water Temperature
  • Satellite Maps
  • Weather Map
  • Weather Widgets
  • user-avatar
    Login

    Hourly Weather Kabul

    Today, 23 September, Saturday

    Time Temperature Precipitation Wind Pressure Humidity
    00:00 +18°C° 0 mm 1 mps 609 mmHg 29%
    01:00 +18°C° 0 mm 1 mps 609 mmHg 31%
    02:00 +16°C° 0 mm 1 mps 609 mmHg 32%
    03:00 +16°C° 0 mm 1 mps 609 mmHg 33%
    04:00 +15°C° 0 mm 1 mps 609 mmHg 34%
    05:00 +15°C° 0 mm 1 mps 609 mmHg 35%
    06:00 +16°C° 0 mm 1 mps 609 mmHg 32%
    07:00 +18°C° 0 mm 1 mps 610 mmHg 28%
    08:00 +20°C° 0 mm 1 mps 611 mmHg 25%
    09:00 +21°C° 0 mm 1 mps 611 mmHg 22%
    10:00 +22°C° 0 mm 1 mps 612 mmHg 20%
    11:00 +23°C° 0 mm 1 mps 612 mmHg 17%
    12:00 +24°C° 0 mm 1 mps 612 mmHg 16%
    13:00 +25°C° 0 mm 2 mps 612 mmHg 14%
    14:00 +26°C° 0 mm 2 mps 612 mmHg 13%
    15:00 +26°C° 0 mm 2 mps 612 mmHg 13%
    16:00 +26°C° 0 mm 2 mps 612 mmHg 13%
    17:00 +26°C° 0 mm 2 mps 612 mmHg 13%
    18:00 +24°C° 0 mm 2 mps 612 mmHg 16%
    19:00 +23°C° 0 mm 2 mps 611 mmHg 18%
    20:00 +20°C° 0 mm 2 mps 611 mmHg 21%
    21:00 +20°C° 0 mm 2 mps 611 mmHg 23%
    22:00 +20°C° 0 mm 1 mps 611 mmHg 25%
    23:00 +19°C° 0 mm 1 mps 610 mmHg 27%

    Tomorrow, 24 September, Sunday

    Time Temperature Precipitation Wind Pressure Humidity
    00:00 +19°C° 0 mm 1 mps 610 mmHg 28%
    01:00 +18°C° 0 mm 1 mps 610 mmHg 29%
    02:00 +16°C° 0 mm 1 mps 609 mmHg 30%
    03:00 +16°C° 0 mm 1 mps 609 mmHg 30%
    04:00 +16°C° 0 mm 1 mps 609 mmHg 31%
    05:00 +15°C° 0 mm 1 mps 609 mmHg 31%
    06:00 +16°C° 0 mm 1 mps 610 mmHg 28%
    07:00 +19°C° 0 mm 1 mps 611 mmHg 25%
    08:00 +20°C° 0 mm 1 mps 612 mmHg 22%
    09:00 +21°C° 0 mm 1 mps 612 mmHg 20%
    10:00 +23°C° 0 mm 1 mps 612 mmHg 17%
    11:00 +24°C° 0 mm 1 mps 613 mmHg 15%
    12:00 +25°C° 0 mm 2 mps 613 mmHg 14%
    13:00 +26°C° 0 mm 2 mps 612 mmHg 12%
    14:00 +26°C° 0 mm 2 mps 612 mmHg 11%
    15:00 +26°C° 0 mm 2 mps 612 mmHg 11%
    16:00 +26°C° 0 mm 3 mps 612 mmHg 11%
    17:00 +26°C° 0 mm 3 mps 612 mmHg 12%
    18:00 +24°C° 0 mm 3 mps 612 mmHg 14%
    19:00 +23°C° 0 mm 2 mps 611 mmHg 16%
    20:00 +20°C° 0 mm 2 mps 611 mmHg 19%
    21:00 +19°C° 0 mm 2 mps 611 mmHg 20%
    22:00 +18°C° 0 mm 2 mps 611 mmHg 21%
    23:00 +18°C° 0 mm 2 mps 610 mmHg 22%

    Day after tomorrow, 25 September, Monday

    Time Temperature Precipitation Wind Pressure Humidity
    00:00 +17°C° 0 mm 2 mps 610 mmHg 23%
    01:00 +17°C° 0 mm 2 mps 610 mmHg 24%
    02:00 +16°C° 0 mm 2 mps 609 mmHg 25%
    03:00 +16°C° 0 mm 2 mps 609 mmHg 25%
    04:00 +15°C° 0 mm 2 mps 609 mmHg 25%
    05:00 +15°C° 0 mm 2 mps 609 mmHg 26%
    06:00 +16°C° 0 mm 2 mps 610 mmHg 24%
    07:00 +17°C° 0 mm 2 mps 611 mmHg 22%
    08:00 +18°C° 0 mm 2 mps 611 mmHg 20%
    09:00 +20°C° 0 mm 2 mps 612 mmHg 17%
    10:00 +21°C° 0 mm 2 mps 612 mmHg 15%
    11:00 +23°C° 0 mm 2 mps 612 mmHg 12%
    12:00 +24°C° 0 mm 2 mps 612 mmHg 11%
    13:00 +25°C° 0 mm 3 mps 612 mmHg 10%
    14:00 +26°C° 0 mm 3 mps 612 mmHg 9%
    15:00 +26°C° 0 mm 3 mps 612 mmHg 9%
    16:00 +26°C° 0 mm 3 mps 612 mmHg 9%
    17:00 +26°C° 0 mm 3 mps 611 mmHg 9%
    18:00 +24°C° 0 mm 3 mps 611 mmHg 11%
    19:00 +21°C° 0 mm 3 mps 611 mmHg 13%
    20:00 +19°C° 0 mm 2 mps 611 mmHg 15%
    21:00 +18°C° 0 mm 2 mps 611 mmHg 16%
    22:00 +18°C° 0 mm 2 mps 610 mmHg 17%
    23:00 +17°C° 0 mm 2 mps 610 mmHg 18%

    26 September, Tuesday

    Time Temperature Precipitation Wind Pressure Humidity
    00:00 +16°C° 0 mm 2 mps 610 mmHg 19%
    01:00 +16°C° 0 mm 2 mps 609 mmHg 19%
    02:00 +15°C° 0 mm 2 mps 609 mmHg 20%
    03:00 +15°C° 0 mm 2 mps 609 mmHg 20%
    04:00 +15°C° 0 mm 2 mps 609 mmHg 20%
    05:00 +14°C° 0 mm 2 mps 608 mmHg 21%
    06:00 +15°C° 0 mm 2 mps 609 mmHg 19%
    07:00 +17°C° 0 mm 2 mps 610 mmHg 17%
    08:00 +18°C° 0 mm 2 mps 611 mmHg 16%
    09:00 +20°C° 0 mm 2 mps 611 mmHg 14%
    10:00 +21°C° 0 mm 2 mps 612 mmHg 12%
    11:00 +24°C° 0 mm 1 mps 612 mmHg 9%
    12:00 +25°C° 0 mm 1 mps 612 mmHg 9%
    13:00 +26°C° 0 mm 2 mps 612 mmHg 8%
    14:00 +27°C° 0 mm 2 mps 612 mmHg 7%
    15:00 +26°C° 0 mm 2 mps 612 mmHg 8%
    16:00 +26°C° 0 mm 2 mps 612 mmHg 8%
    17:00 +26°C° 0 mm 2 mps 612 mmHg 8%
    18:00 +24°C° 0 mm 2 mps 611 mmHg 10%
    19:00 +23°C° 0 mm 2 mps 611 mmHg 12%
    20:00 +20°C° 0 mm 2 mps 611 mmHg 14%
    21:00 +19°C° 0 mm 2 mps 611 mmHg 15%
    22:00 +19°C° 0 mm 1 mps 610 mmHg 17%
    23:00 +18°C° 0 mm 1 mps 610 mmHg 18%

    27 September, Wednesday

    Time Temperature Precipitation Wind Pressure Humidity
    00:00 +18°C° 0 mm 1 mps 610 mmHg 19%
    01:00 +16°C° 0 mm 1 mps 610 mmHg 20%
    02:00 +16°C° 0 mm 1 mps 609 mmHg 20%
    03:00 +15°C° 0 mm 2 mps 609 mmHg 20%
    04:00 +15°C° 0 mm 2 mps 609 mmHg 20%
    05:00 +15°C° 0 mm 2 mps 609 mmHg 20%
    06:00 +16°C° 0 mm 2 mps 610 mmHg 19%
    07:00 +17°C° 0 mm 2 mps 611 mmHg 17%
    08:00 +19°C° 0 mm 2 mps 612 mmHg 15%
    09:00 +20°C° 0 mm 2 mps 612 mmHg 14%
    10:00 +23°C° 0 mm 2 mps 613 mmHg 13%
    11:00 +24°C° 0 mm 2 mps 613 mmHg 11%
    12:00 +25°C° 0 mm 2 mps 613 mmHg 11%
    13:00 +26°C° 0 mm 2 mps 613 mmHg 10%
    14:00 +27°C° 0 mm 3 mps 613 mmHg 10%
    15:00 +27°C° 0 mm 3 mps 613 mmHg 10%
    16:00 +26°C° 0 mm 3 mps 613 mmHg 10%
    17:00 +26°C° 0 mm 3 mps 612 mmHg 11%
    18:00 +24°C° 0 mm 3 mps 612 mmHg 13%
    19:00 +22°C° 0 mm 3 mps 612 mmHg 15%
    20:00 +20°C° 0 mm 2 mps 612 mmHg 17%
    21:00 +19°C° 0 mm 2 mps 612 mmHg 18%
    22:00 +18°C° 0 mm 2 mps 611 mmHg 19%
    23:00 +18°C° 0 mm 2 mps 611 mmHg 20%

    28 September, Thursday

    Time Temperature Precipitation Wind Pressure Humidity
    00:00 +17°C° 0 mm 2 mps 611 mmHg 21%
    01:00 +17°C° 0 mm 2 mps 610 mmHg 22%
    02:00 +16°C° 0 mm 2 mps 610 mmHg 22%
    03:00 +16°C° 0 mm 2 mps 610 mmHg 23%
    04:00 +15°C° 0 mm 2 mps 610 mmHg 23%
    05:00 +15°C° 0 mm 2 mps 610 mmHg 23%
    06:00 +16°C° 0 mm 2 mps 610 mmHg 22%
    07:00 +17°C° 0 mm 2 mps 611 mmHg 20%
    08:00 +18°C° 0 mm 2 mps 612 mmHg 19%
    09:00 +20°C° 0 mm 2 mps 612 mmHg 17%
    10:00 +23°C° 0 mm 2 mps 613 mmHg 14%
    11:00 +24°C° 0 mm 2 mps 613 mmHg 12%
    12:00 +25°C° 0 mm 2 mps 613 mmHg 11%
    13:00 +26°C° 0 mm 2 mps 613 mmHg 10%
    14:00 +27°C° 0 mm 3 mps 613 mmHg 9%
    15:00 +27°C° 0 mm 3 mps 612 mmHg 9%
    16:00 +27°C° 0 mm 3 mps 612 mmHg 9%
    17:00 +27°C° 0 mm 3 mps 612 mmHg 9%
    18:00 +25°C° 0 mm 3 mps 612 mmHg 11%
    19:00 +23°C° 0 mm 2 mps 612 mmHg 12%
    20:00 +20°C° 0 mm 2 mps 611 mmHg 14%
    21:00 +19°C° 0 mm 2 mps 611 mmHg 15%
    22:00 +18°C° 0 mm 2 mps 611 mmHg 16%
    23:00 +18°C° 0 mm 2 mps 611 mmHg 16%
    Show more